Koyo — JD2279 — position and weather

sailwx.info

Track history (hours):
 
Tides and Currents Weather Stations Pressure Air Temp Water Temp Dewpoint Dewpoint Depression Visibility Wind Speed Wind Dir Waves Ship Positions

Koyo

Last reported at 2014-Sep-01 05:03 UTC. Time now 2014-Sep-01 11:25 UTC.
Position N 34°34' E 134°49'.

Length 80 m; draft 3.6 m.

Type: Cargo ship. MMSI: 431301812.

Date/timePositionNaut miles runAvg speedWind from/ knotsBaromVisibWave heightAir tempDewpointWater temp
2014-Sep-01 05:03N 34°34' E 134°49'714.4
2014-Sep-01 04:33N 34°37' E 134°57'1312.9
2014-Sep-01 03:33N 34°37' E 135°12'3 2.8
2014-Sep-01 02:33N 34°39' E 135°14'0 0.0
2014-Sep-01 01:33N 34°39' E 135°14'1 0.8
2014-Sep-01 00:33N 34°39' E 135°15'0 0.0
2014-Aug-31 23:33N 34°39' E 135°15'0 0.0
2014-Aug-31 22:33N 34°39' E 135°15'6 5.8
2014-Aug-31 21:33N 34°36' E 135°09'1212.6
2014-Aug-31 20:33N 34°35' E 134°54'11211.1
2014-Aug-31 10:28N 33°60' E 132°45'107 2.2
2014-Aug-29 10:20N 34°05' E 134°55'1314.5
2014-Aug-29 09:26N 34°18' E 134°59'1213.9
2014-Aug-29 08:33N 34°28' E 135°06'1313.0
2014-Aug-29 07:33N 34°39' E 135°15'1 0.5
2014-Aug-29 06:33N 34°40' E 135°14'0 0.0
2014-Aug-29 05:33N 34°40' E 135°14'0 0.1
2014-Aug-29 04:33N 34°39' E 135°15'1 0.7
2014-Aug-29 03:30N 34°39' E 135°15'0 0.0
2014-Aug-29 02:30N 34°39' E 135°15'0 0.0
2014-Aug-29 01:24N 34°39' E 135°15'0 0.0
2014-Aug-29 00:30N 34°39' E 135°15'0 0.0
2014-Aug-28 23:30N 34°39' E 135°15'2 2.2
2014-Aug-28 22:33N 34°37' E 135°13'1010.3
2014-Aug-28 21:33N 34°37' E 135°01'1311.0
2014-Aug-28 20:22N 34°32' E 134°46'10610.8
2014-Aug-28 10:31N 34°03' E 132°42'1110.6
2014-Aug-28 09:31N 33°57' E 132°32'1010.5
2014-Aug-28 08:33N 33°50' E 132°23'130 5.0
2014-Aug-27 06:33N 34°35' E 134°51'10 9.9
2014-Aug-27 05:33N 34°37' E 135°03'1212.1
2014-Aug-27 04:33N 34°37' E 135°17'7 6.5
2014-Aug-27 03:33N 34°38' E 135°25'0 0.0
2014-Aug-27 02:33N 34°38' E 135°25'4 4.2
2014-Aug-27 01:33N 34°39' E 135°20'5 4.7
2014-Aug-27 00:32N 34°40' E 135°14'0 0.0
2014-Aug-26 23:32N 34°40' E 135°14'1 1.1
2014-Aug-26 22:32N 34°39' E 135°15'0 0.4
2014-Aug-26 21:33N 34°38' E 135°15'1010.4
2014-Aug-26 20:33N 34°36' E 135°03'1110.8
2014-Aug-26 19:32N 34°33' E 134°50'133 5.2
2014-Aug-25 18:03N 33°50' E 132°17'2113.4
2014-Aug-25 16:30N 34°01' E 132°38'11612.9
2014-Aug-25 07:32N 34°35' E 134°52'1111.6
2014-Aug-25 06:33N 34°36' E 135°06'8 7.6
2014-Aug-25 05:31N 34°40' E 135°14'0 0.0
2014-Aug-25 04:19N 34°40' E 135°14'0 0.0
2014-Aug-25 03:25N 34°40' E 135°14'0 0.0
2014-Aug-25 02:25N 34°40' E 135°14'0 0.5
2014-Aug-25 01:33N 34°40' E 135°15'2 1.8
2014-Aug-25 00:14N 34°41' E 135°13'0 0.0
2014-Aug-24 23:14N 34°41' E 135°13'0 0.0
2014-Aug-24 22:32N 34°41' E 135°13'0 0.0
2014-Aug-24 21:32N 34°41' E 135°13'0 0.0
2014-Aug-24 20:32N 34°41' E 135°13'0 0.0
2014-Aug-24 19:32N 34°41' E 135°13'0 0.0
2014-Aug-24 18:32N 34°41' E 135°13'0 0.0
2014-Aug-24 17:32N 34°41' E 135°13'0 0.0
2014-Aug-24 16:32N 34°41' E 135°13'0 0.0
2014-Aug-24 15:32N 34°41' E 135°13'0 0.0
2014-Aug-24 14:32N 34°41' E 135°13'0 0.0
2014-Aug-24 13:32N 34°41' E 135°13'0 0.0
2014-Aug-24 12:26N 34°41' E 135°13'0 0.0
2014-Aug-24 11:32N 34°41' E 135°13'0 0.0
2014-Aug-24 10:32N 34°41' E 135°13'0 0.0
2014-Aug-24 09:32N 34°41' E 135°13'0 0.0
2014-Aug-24 08:32N 34°41' E 135°13'0 0.0
2014-Aug-24 07:26N 34°41' E 135°13'0 0.0
2014-Aug-24 06:32N 34°41' E 135°13'0 0.0
2014-Aug-24 05:32N 34°41' E 135°13'0 0.0
2014-Aug-24 04:26N 34°41' E 135°13'0 0.0
2014-Aug-24 03:32N 34°41' E 135°13'0 0.0
2014-Aug-24 02:32N 34°41' E 135°13'0 0.0
2014-Aug-24 01:32N 34°41' E 135°13'0 0.0
2014-Aug-24 00:32N 34°41' E 135°13'0 0.0
2014-Aug-23 23:20N 34°41' E 135°13'0 0.0
2014-Aug-23 22:32N 34°41' E 135°13'0 0.0
2014-Aug-23 21:26N 34°41' E 135°13'0 0.0
2014-Aug-23 20:32N 34°41' E 135°13'0 0.0
2014-Aug-23 19:32N 34°41' E 135°13'22 0.7
2014-Aug-22 12:10N 34°33' E 134°47'812.7
2014-Aug-22 11:32N 34°37' E 134°56'1111.0
2014-Aug-22 10:33N 34°37' E 135°09'5 4.9
2014-Aug-22 09:31N 34°40' E 135°14'0 0.0
2014-Aug-22 08:31N 34°40' E 135°14'0 0.0
2014-Aug-22 07:31N 34°40' E 135°14'1 0.5
2014-Aug-22 06:33N 34°39' E 135°15'1 0.6
2014-Aug-22 05:28N 34°39' E 135°15'  
Track history (hours):
 
Tides and Currents Weather Stations Pressure Air Temp Water Temp Dewpoint Dewpoint Depression Visibility Wind Speed Wind Dir Waves Ship Positions

Koyo

Last reported at 2014-Sep-01 05:03 UTC. Time now 2014-Sep-01 11:25 UTC.
Position N 34°34' E 134°49'.

Length 80 m; draft 3.6 m.

Type: Cargo ship. MMSI: 431301812.

Date/timePositionNaut miles runAvg speedWind from/ knotsBaromVisibWave heightAir tempDewpointWater temp
2014-Sep-01 05:03N 34°34' E 134°49'714.4
2014-Sep-01 04:33N 34°37' E 134°57'1312.9
2014-Sep-01 03:33N 34°37' E 135°12'3 2.8
2014-Sep-01 02:33N 34°39' E 135°14'0 0.0
2014-Sep-01 01:33N 34°39' E 135°14'1 0.8
2014-Sep-01 00:33N 34°39' E 135°15'0 0.0
2014-Aug-31 23:33N 34°39' E 135°15'0 0.0
2014-Aug-31 22:33N 34°39' E 135°15'6 5.8
2014-Aug-31 21:33N 34°36' E 135°09'1212.6
2014-Aug-31 20:33N 34°35' E 134°54'11211.1
2014-Aug-31 10:28N 33°60' E 132°45'107 2.2
2014-Aug-29 10:20N 34°05' E 134°55'1314.5
2014-Aug-29 09:26N 34°18' E 134°59'1213.9
2014-Aug-29 08:33N 34°28' E 135°06'1313.0
2014-Aug-29 07:33N 34°39' E 135°15'1 0.5
2014-Aug-29 06:33N 34°40' E 135°14'0 0.0
2014-Aug-29 05:33N 34°40' E 135°14'0 0.1
2014-Aug-29 04:33N 34°39' E 135°15'1 0.7
2014-Aug-29 03:30N 34°39' E 135°15'0 0.0
2014-Aug-29 02:30N 34°39' E 135°15'0 0.0
2014-Aug-29 01:24N 34°39' E 135°15'0 0.0
2014-Aug-29 00:30N 34°39' E 135°15'0 0.0
2014-Aug-28 23:30N 34°39' E 135°15'2 2.2
2014-Aug-28 22:33N 34°37' E 135°13'1010.3
2014-Aug-28 21:33N 34°37' E 135°01'1311.0
2014-Aug-28 20:22N 34°32' E 134°46'10610.8
2014-Aug-28 10:31N 34°03' E 132°42'1110.6
2014-Aug-28 09:31N 33°57' E 132°32'1010.5
2014-Aug-28 08:33N 33°50' E 132°23'130 5.0
2014-Aug-27 06:33N 34°35' E 134°51'10 9.9
2014-Aug-27 05:33N 34°37' E 135°03'1212.1
2014-Aug-27 04:33N 34°37' E 135°17'7 6.5
2014-Aug-27 03:33N 34°38' E 135°25'0 0.0
2014-Aug-27 02:33N 34°38' E 135°25'4 4.2
2014-Aug-27 01:33N 34°39' E 135°20'5 4.7
2014-Aug-27 00:32N 34°40' E 135°14'0 0.0
2014-Aug-26 23:32N 34°40' E 135°14'1 1.1
2014-Aug-26 22:32N 34°39' E 135°15'0 0.4
2014-Aug-26 21:33N 34°38' E 135°15'1010.4
2014-Aug-26 20:33N 34°36' E 135°03'1110.8
2014-Aug-26 19:32N 34°33' E 134°50'133 5.2
2014-Aug-25 18:03N 33°50' E 132°17'2113.4
2014-Aug-25 16:30N 34°01' E 132°38'11612.9
2014-Aug-25 07:32N 34°35' E 134°52'1111.6
2014-Aug-25 06:33N 34°36' E 135°06'8 7.6
2014-Aug-25 05:31N 34°40' E 135°14'0 0.0
2014-Aug-25 04:19N 34°40' E 135°14'0 0.0
2014-Aug-25 03:25N 34°40' E 135°14'0 0.0
2014-Aug-25 02:25N 34°40' E 135°14'0 0.5
2014-Aug-25 01:33N 34°40' E 135°15'2 1.8
2014-Aug-25 00:14N 34°41' E 135°13'0 0.0
2014-Aug-24 23:14N 34°41' E 135°13'0 0.0
2014-Aug-24 22:32N 34°41' E 135°13'0 0.0
2014-Aug-24 21:32N 34°41' E 135°13'0 0.0
2014-Aug-24 20:32N 34°41' E 135°13'0 0.0
2014-Aug-24 19:32N 34°41' E 135°13'0 0.0
2014-Aug-24 18:32N 34°41' E 135°13'0 0.0
2014-Aug-24 17:32N 34°41' E 135°13'0 0.0
2014-Aug-24 16:32N 34°41' E 135°13'0 0.0
2014-Aug-24 15:32N 34°41' E 135°13'0 0.0
2014-Aug-24 14:32N 34°41' E 135°13'0 0.0
2014-Aug-24 13:32N 34°41' E 135°13'0 0.0
2014-Aug-24 12:26N 34°41' E 135°13'0 0.0
2014-Aug-24 11:32N 34°41' E 135°13'0 0.0
2014-Aug-24 10:32N 34°41' E 135°13'0 0.0
2014-Aug-24 09:32N 34°41' E 135°13'0 0.0
2014-Aug-24 08:32N 34°41' E 135°13'0 0.0
2014-Aug-24 07:26N 34°41' E 135°13'0 0.0
2014-Aug-24 06:32N 34°41' E 135°13'0 0.0
2014-Aug-24 05:32N 34°41' E 135°13'0 0.0
2014-Aug-24 04:26N 34°41' E 135°13'0 0.0
2014-Aug-24 03:32N 34°41' E 135°13'0 0.0
2014-Aug-24 02:32N 34°41' E 135°13'0 0.0
2014-Aug-24 01:32N 34°41' E 135°13'0 0.0
2014-Aug-24 00:32N 34°41' E 135°13'0 0.0
2014-Aug-23 23:20N 34°41' E 135°13'0 0.0
2014-Aug-23 22:32N 34°41' E 135°13'0 0.0
2014-Aug-23 21:26N 34°41' E 135°13'0 0.0
2014-Aug-23 20:32N 34°41' E 135°13'0 0.0
2014-Aug-23 19:32N 34°41' E 135°13'22 0.7
2014-Aug-22 12:10N 34°33' E 134°47'812.7
2014-Aug-22 11:32N 34°37' E 134°56'1111.0
2014-Aug-22 10:33N 34°37' E 135°09'5 4.9
2014-Aug-22 09:31N 34°40' E 135°14'0 0.0
2014-Aug-22 08:31N 34°40' E 135°14'0 0.0
2014-Aug-22 07:31N 34°40' E 135°14'1 0.5
2014-Aug-22 06:33N 34°39' E 135°15'1 0.6
2014-Aug-22 05:28N 34°39' E 135°15'  

Dump ship's entire track history